GW1554 Weather Reports


Display with metric or nautical units.
time (UTC)temp
F
wind
direction
speed
MPH
gust
MPH
rain 1hr
in
rain 24hr
in
rain mn
in
humidity
%
barometer
mb
20260506073044 56 217 0.0 1.0 0.01 1.03 0.83 94 1010.2
20260506071538 56 115 0.0 1.0 0.04 1.03 0.83 95 1010.1
20260506061535 54 354 2.0 4.0 0.00 0.99 0.80 94 1009.9
20260506044539 53 347 4.0 9.0 0.00 1.13 0.80 91 1008.9
20260506043030 53 67 0.0 6.0 0.00 1.13 0.80 93 1009.0
20260506041539 53 271 0.0 8.0 0.01 1.13 0.80 92 1009.2
20260506040032 53 325 5.0 12.0 0.09 1.13 0.80 93 1009.1
20260506034531 52 25 3.0 12.0 0.11 1.13 0.80 95 1009.1
20260506033026 52 347 1.0 3.0 0.17 1.13 0.80 96 1009.4
20260506031525 52 11 2.0 4.0 0.24 1.12 0.78 95 1009.7
20260506030023 52 9 0.0 0.0 0.22 1.04 0.69 94 1010.1
20260506024527 52 52 0.0 4.0 0.24 1.03 0.69 94 1010.0
20260506023024 52 16 5.0 9.0 0.17 0.97 0.62 93 1010.1
20260506021521 53 302 1.0 4.0 0.09 0.89 0.54 91 1010.3
20260506020020 54 5 3.0 13.0 0.02 0.81 0.46 87 1009.6
20260506014520 54 8 9.0 16.0 0.01 1.09 0.45 84 1009.3
20260506013020 54 12 7.0 15.0 0.02 1.09 0.45 85 1009.3
20260506011535 54 15 9.0 17.0 0.02 1.09 0.45 86 1009.3
20260506010015 53 13 0.0 5.0 0.02 1.08 0.44 88 1009.9
20260506004529 54 71 1.0 5.0 0.02 1.24 0.44 85 1010.2
20260506003013 55 340 5.0 13.0 0.00 1.22 0.43 79 1010.1
20260506001510 54 6 9.0 16.0 0.01 1.22 0.43 83 1010.4
20260506000010 54 56 9.0 16.0 0.06 1.22 0.43 84 1010.5
20260505234509 54 356 9.0 17.0 0.16 1.31 0.43 86 1010.7
20260505233004 53 30 10.0 19.0 0.26 1.31 0.43 88 1011.1
20260505231632 53 356 7.0 14.0 0.33 1.30 0.42 88 1011.8
20260505230100 53 34 3.0 7.0 0.36 1.24 0.36 93 1012.2
20260505224552 54 309 2.0 6.0 0.32 1.17 0.27 95 1012.7
20260505223050 55 280 0.0 3.0 0.21 1.06 0.16 95 1012.6
20260505221559 55 297 0.0 3.0 0.13 0.98 0.08 94 1012.9
20260505220056 56 303 1.0 3.0 0.06 0.90 0.00 92 1012.8
20260505214551 56 39 2.0 9.0 0.00 0.84 0.84 91 1012.6
20260505213042 55 350 2.0 6.0 0.00 0.84 0.84 93 1012.8
20260505211542 55 337 0.0 1.0 0.00 0.84 0.84 93 1013.3
20260505210049 55 285 0.0 1.0 0.00 0.84 0.84 92 1013.4
20260505204551 55 128 0.0 3.0 0.00 0.87 0.84 92 1013.1
20260505203041 55 315 0.0 4.0 0.00 0.87 0.84 93 1013.2
20260505201543 55 352 0.0 1.0 0.00 0.87 0.84 94 1012.9
20260505200040 55 325 0.0 5.0 0.00 0.87 0.84 94 1013.0
20260505194539 55 1 0.0 1.0 0.00 0.92 0.84 95 1013.0
20260505193042 56 359 0.0 2.0 0.00 0.92 0.84 94 1012.9
20260505191538 56 136 0.0 4.0 0.00 0.92 0.84 94 1012.6
20260505190037 57 349 0.0 3.0 0.00 0.92 0.84 94 1012.5
20260505184537 57 39 0.0 1.0 0.00 1.01 0.84 93 1012.8
20260505183047 57 98 0.0 3.0 0.00 1.01 0.84 93 1012.9
20260505181535 58 88 1.0 4.0 0.00 1.01 0.84 92 1012.8
20260505180034 58 244 0.0 2.0 0.00 1.01 0.84 92 1012.5
20260505174535 58 132 0.0 3.0 0.00 1.06 0.84 91 1012.8
20260505173034 59 107 1.0 6.0 0.00 1.06 0.84 91 1012.8
20260505171533 60 219 1.0 3.0 0.00 1.06 0.84 89 1012.9
20260505170032 60 268 0.0 0.0 0.00 1.06 0.84 87 1012.8
20260505164550 61 141 0.0 0.0 0.00 1.08 0.84 86 1012.9
20260505163030 60 105 0.0 4.0 0.00 1.08 0.84 88 1012.8
20260505161535 60 127 0.0 5.0 0.00 1.08 0.84 88 1013.1
20260505153029 61 108 3.0 8.0 0.00 1.08 0.84 88 1013.0
20260505151527 61 116 2.0 8.0 0.00 1.08 0.84 87 1012.9
20260505124518 59 154 4.0 7.0 0.00 1.08 0.84 94 1013.5
20260505123012 59 49 0.0 1.0 0.00 1.08 0.84 95 1013.5
20260505121510 58 95 2.0 4.0 0.00 1.08 0.84 95 1013.3
20260505120009 58 97 3.0 6.0 0.00 1.08 0.84 95 1013.5
20260505114510 58 133 3.0 11.0 0.00 1.08 0.84 95 1013.5
20260505113009 58 146 3.0 6.0 0.00 1.08 0.84 95 1013.5
20260505111510 58 136 4.0 7.0 0.00 1.08 0.84 95 1013.5
20260505101502 57 82 1.0 3.0 0.01 1.08 0.84 95 1013.6
20260505094601 56 35 0.0 1.0 0.09 1.08 0.84 96 1013.9
20260505093106 56 97 0.0 3.0 0.13 1.07 0.83 96 1013.8
20260505091558 56 131 1.0 4.0 0.13 1.07 0.83 96 1013.5
20260505090058 55 92 1.0 2.0 0.13 1.07 0.83 96 1013.4
20260505084558 56 271 0.0 4.0 0.06 0.99 0.76 95 1013.5
20260505083103 57 100 4.0 7.0 0.01 0.94 0.71 94 1013.2
20260505081557 56 90 0.0 4.0 0.01 0.94 0.71 96 1013.2